Back to catalog

TITAN 3C TRANSTAGE DEB

AliveMEO
NORAD 43447·DEBRIS·🇺🇸 United States

Launched Feb 9, 1969 from Cape Canaveral Space Force Station

Loading…

Next Passes (next 24 hours)

TLE

FreshSource: Space-Track

Epoch: Sep 13, 2026, 14:13 UTC

1 43447U 69013G   26256.59283431 -.00000088  00000-0  00000+0 0  9993
2 43447   1.5137  81.6155 0136311  27.1452 334.5220  0.97139757 30126

Track TITAN 3C TRANSTAGE DEB in real time with AllMySat

Download on the App Store